Location: Unspecified
(51.5147°N, 7.4673°E)
Time: 03:55:25
(UTC+01:00)

Vanguard 1 Rocket - Pass Details

Date: 18 February 2026
Orbit: 653 x 4214 km, 34.3° (Epoch: 5 March)

Event Time Altitude Azimuth Distance (km) Brightness Sun altitude
Rises 20:07:28 0° 273° (W) 6,633 13.3 -21.9°
Reaches altitude 10° 20:12:47 10° 260° (W) 6,127 12.6 -22.7°
Maximum altitude 20:26:57 24° 217° (SW) 5,963 11.7 -24.8°
Drops below altitude 10° 20:44:09 10° 175° (S) 7,396 11.8 -27.4°
Sets 20:51:51 0° 164° (SSE) 8,266 12.0 -28.5°
